Location: Endfield
(51.6667°N, 0.0667°W)
Time: 06:39:45
(UTC+00:00)

Cosmos 1331 Rocket - Pass Details

Date: 19 May 2024
Orbit: 747 x 775 km, 74.0° (Epoch: 19 June)

Event Time Altitude Azimuth Distance (km) Brightness Sun altitude
Rises 22:12:29 0° 333° (NNW) 3,256 9.2 -14.8°
Reaches altitude 10° 22:14:53 10° 330° (NNW) 2,321 7.9 -14.9°
Maximum altitude 22:20:06 65° 250° (WSW) 843 4.2 -15.2°
Enters shadow 22:23:17 23° 175° (S) 1,567 5.0 -15.4°
